Regional Weather Roundup
Issued by NWS

Home | Current Version | Previous Version | Text Only | Print | Product List | Glossary Off
Versions: 1 2 3 4 5 6 7 8 9 10 11 12 13 14 15 16 17 18 19 20 21 22 23 24 25 26 27 28 29 30 31 32 33 34 35 36 37 38 39 40 41 42 43 44 45 46 47 48 49 50

000
ASUS43 KLMK 270002
RWRKY
KENTUCKY REGIONAL WEATHER ROUNDUP
NATIONAL WEATHER SERVICE LOUISVILLE KY
700 PM EST FRI DEC 26 2014

NOTE "FAIR" INDICATES FEW OR NO CLOUDS BELOW 12,000 FEET
WITH NO SIGNIFICANT WEATHER AND/OR OBSTRUCTIONS TO VISIBILITY.

KYZ001>023-026-027-061>063-070>075-270100-
WESTERN AND SOUTH CENTRAL KENTUCKY

CITY           SKY/WX    TMP DP  RH WIND       PRES   REMARKS
PADUCAH        PTCLDY    50  40  68 S8        30.13R
HENDERSON      PTCLDY    48  39  71 S9        30.13F
OWENSBORO      MOCLDY    49  41  74 S8        30.16S
HOPKINSVILLE   MOCLDY    50  37  61 S7        30.18S
BOWLING GREEN  MOCLDY    51  34  52 S7        30.20F
GLASGOW        NOT AVBL
$$

KYZ024-025-028>034-038-045-046-053-270100-
NORTH CENTRAL KENTUCKY

CITY           SKY/WX    TMP DP  RH WIND       PRES   REMARKS
LOUISVILLE/SDF CLOUDY    51  36  56 S9        30.17S
LOUISVILLE/LOU CLOUDY    51  36  56 S5        30.18S
FORT KNOX      CLOUDY    48  37  64 S8        30.16F
$$

KYZ035>037-039>044-047>052-055>060-089>105-270100-
NORTHEAST KENTUCKY

CITY           SKY/WX    TMP DP  RH WIND       PRES   REMARKS
LEXINGTON      MOCLDY    47  33  58 S6        30.21S
COVINGTON      CLOUDY    48  33  56 S8        30.17S
FRANKFORT      CLOUDY    48  33  56 S7        30.18F
$$

KYZ054-064>069-076>088-106>120-270100-
SOUTHEAST KENTUCKY

CITY           SKY/WX    TMP DP  RH WIND       PRES   REMARKS
JACKSON        MOCLDY    50  24  36 S3        30.22F
LONDON         CLOUDY    49  27  42 S5        30.23S
SOMERSET       NOT AVBL
MIDDLESBORO    NOT AVBL
MONTICELLO     PTCLDY    50  35  56 SE8       30.23F
$$




USA.gov is the U.S. government's official web portal to all federal, state and local government web resources and services.